This demonstration page uses our WeatherBlox Daily Observations layout. Learn more.

Left ArrowRight Arrow

Hourly Observations for July 24, 2018

Temp ( °F °C ) Dew Point ( °F °C ) Humidity (%) Winds ( mph kmh ) Pressure ( in mb ) Visibility ( mi km ) Precip ( " mm )
12:03 am 00:03 Partly Cloudy 64 18 64 18 100 100 N N/A 29.97 1015 7 11.26538 N/A
12:28 am 00:28 Clear 64 18 64 18 100 100 N N/A 29.97 1015 5 8.0467 N/A
12:48 am 00:48 Clear 63 17 63 17 100 100 N N/A 29.97 1015 3 4.82802 N/A
1:08 am 01:08 Mostly Cloudy 63 17 63 17 100 100 N N/A 29.97 1015 1.25 2.011675 N/A
1:23 am 01:23 Mostly Cloudy 63 17 63 17 100 100 N N/A 29.97 1015 1 1.60934 N/A
1:47 am 01:47 Mostly Cloudy 63 17 63 17 100 100 N N/A 29.97 1015 1.25 2.011675 N/A
2:03 am 02:03 Mostly Cloudy 63 17 63 17 100 100 N N/A 29.97 1015 0.5 0.80467 N/A
2:36 am 02:36 Mostly Cloudy 61 16 61 16 100 100 N N/A 29.97 1015 0.25 0.402335 N/A
2:46 am 02:46 Mostly Cloudy 61 16 61 16 100 100 N N/A 29.97 1015 0.75 1.207005 N/A
3:08 am 03:08 Mostly Cloudy 61 16 61 16 100 100 N N/A 29.97 1015 0.5 0.80467 N/A
3:25 am 03:25 Mostly Cloudy 61 16 61 16 100 100 N N/A 29.97 1015 0.25 0.402335 N/A
3:46 am 03:46 Clear 61 16 61 16 100 100 N N/A 29.97 1015 4 6.43736 N/A
4:18 am 04:18 Cloudy 61 16 61 16 100 100 WSW 3 6 29.97 1015 0.25 0.402335 N/A
4:44 am 04:44 Mostly Cloudy 63 17 63 17 100 100 WSW 5 7 29.97 1015 3 4.82802 N/A
5:03 am 05:03 Partly Cloudy 63 17 63 17 100 100 WSW 3 6 29.97 1015 4 6.43736 N/A
5:22 am 05:22 Mostly Cloudy 63 17 63 17 100 100 W 3 6 29.97 1015 4 6.43736 N/A
5:46 am 05:46 Clear 63 17 63 17 100 100 WSW 3 6 29.97 1015 5 8.0467 N/A
6:08 am 06:08 Clear 61 16 61 16 100 100 W 3 6 29.97 1015 5 8.0467 N/A
6:31 am 06:31 Clear 61 16 61 16 100 100 WNW 3 6 29.97 1015 7 11.26538 N/A
6:50 am 06:50 Partly Cloudy 59 15 59 15 100 100 N N/A 30 1016 2 3.21868 N/A
7:10 am 07:10 Partly Cloudy 61 16 61 16 100 100 WNW 3 6 30 1016 3 4.82802 N/A
7:27 am 07:27 Sunny 63 17 63 17 100 100 WNW 5 7 30 1016 3 4.82802 N/A
7:47 am 07:47 Partly Cloudy 64 18 64 18 100 100 WNW 3 6 30 1016 4 6.43736 N/A
8:06 am 08:06 Mostly Cloudy 64 18 64 18 100 100 NNW 3 6 30 1016 5 8.0467 N/A
8:32 am 08:32 Cloudy 66 19 66 19 100 100 NNW 5 7 30 1016 5 8.0467 N/A
8:49 am 08:49 Mostly Cloudy 68 20 68 20 100 100 NNW 6 9 30 1016 5 8.0467 N/A
9:15 am 09:15 Mostly Cloudy 68 20 68 20 100 100 N 9 15 30 1016 7 11.26538 N/A
9:27 am 09:27 Cloudy 68 20 68 20 100 100 NW 7 11 30 1016 7 11.26538 N/A
9:47 am 09:47 Mostly Cloudy 68 20 68 20 100 100 N 6 9 30.03 1017 10 16.0934 N/A
9:56 am 09:56 Mostly Cloudy 68 20 68 20 100 100 N 6 9 30.03 1017 7 11.26538 N/A
10:17 am 10:17 Mostly Cloudy 70 21 68 20 94 94 N 6 9 29.97 1015 7 11.26538 N/A
10:36 am 10:36 Partly Cloudy 70 21 68 20 94 94 N 8 13 30 1016 10 16.0934 N/A
10:56 am 10:56 Mostly Cloudy 72 22 70 21 94 94 NNE 7 11 30 1016 10 16.0934 N/A
11:17 am 11:17 Cloudy 72 22 70 21 94 94 N N/A 30 1016 10 16.0934 N/A
11:36 am 11:36 Cloudy 73 23 70 21 89 89 N 5 7 30 1016 10 16.0934 N/A
11:57 am 11:57 Cloudy 73 23 70 21 89 89 N 5 7 30 1016 10 16.0934 N/A
12:16 pm 12:16 Cloudy 75 24 70 21 83 83 N 3 6 30 1016 10 16.0934 N/A
12:36 pm 12:36 Cloudy 75 24 70 21 83 83 N 5 7 30 1016 10 16.0934 N/A
12:57 pm 12:57 Mostly Cloudy 77 25 72 22 83 83 NNW 5 7 30 1016 10 16.0934 N/A
1:16 pm 13:16 Partly Cloudy 77 25 70 21 79 79 NW 8 13 30 1016 10 16.0934 N/A
1:37 pm 13:37 Partly Cloudy 81 27 72 22 74 74 N 7 11 30 1016 10 16.0934 N/A
1:57 pm 13:57 Partly Cloudy 81 27 72 22 74 74 N 8 13 29.97 1015 10 16.0934 N/A
2:16 pm 14:16 Partly Cloudy 81 27 70 21 70 70 NNW 8 13 29.97 1015 10 16.0934 N/A
2:37 pm 14:37 Partly Cloudy 81 27 70 21 70 70 NNW 10 17 29.97 1015 10 16.0934 N/A
2:56 pm 14:56 Mostly Cloudy 81 27 70 21 70 70 NW 9 15 29.97 1015 10 16.0934 N/A
3:16 pm 15:16 Mostly Cloudy 81 27 70 21 70 70 NNW 8 13 29.97 1015 10 16.0934 N/A
3:37 pm 15:37 Mostly Cloudy 81 27 70 21 70 70 NNW 10 17 29.97 1015 10 16.0934 N/A
3:56 pm 15:56 Partly Cloudy 81 27 70 21 70 70 NNW 5 7 29.97 1015 10 16.0934 N/A
4:16 pm 16:16 Mostly Cloudy 79 26 72 22 79 79 NNE 8 13 29.94 1014 10 16.0934 N/A
4:37 pm 16:37 Mostly Cloudy 81 27 72 22 74 74 NNE 8 13 29.94 1014 10 16.0934 N/A
4:56 pm 16:56 Mostly Cloudy 81 27 73 23 79 79 NNE 6 9 29.94 1014 10 16.0934 N/A
5:17 pm 17:17 Partly Cloudy 81 27 72 22 74 74 N 8 13 29.94 1014 10 16.0934 N/A
5:37 pm 17:37 Mostly Cloudy 81 27 72 22 74 74 N 9 15 29.94 1014 10 16.0934 N/A
5:56 pm 17:56 Mostly Cloudy 81 27 72 22 74 74 NNE 8 13 29.94 1014 10 16.0934 N/A
6:17 pm 18:17 Partly Cloudy 81 27 72 22 74 74 N 8 13 29.94 1014 10 16.0934 N/A
6:36 pm 18:36 Partly Cloudy 81 27 72 22 74 74 NNE 5 7 29.94 1014 10 16.0934 N/A
6:56 pm 18:56 Partly Cloudy 81 27 72 22 74 74 NNE 8 13 29.94 1014 10 16.0934 N/A
7:17 pm 19:17 Partly Cloudy 81 27 72 22 74 74 NNW 7 11 29.94 1014 10 16.0934 N/A
7:36 pm 19:36 Sunny 81 27 72 22 74 74 NNW 7 11 29.94 1014 10 16.0934 N/A
7:56 pm 19:56 Sunny 79 26 70 21 74 74 NNW 9 15 29.94 1014 10 16.0934 N/A
8:17 pm 20:17 Sunny 79 26 70 21 74 74 NNW 7 11 29.94 1014 10 16.0934 N/A
8:36 pm 20:36 Sunny 77 25 70 21 79 79 NNW 7 11 29.94 1014 10 16.0934 N/A
8:57 pm 20:57 Sunny 73 23 70 21 89 89 NNW 5 7 29.97 1015 10 16.0934 N/A
9:16 pm 21:16 Clear 73 23 70 21 89 89 NW 6 9 29.97 1015 10 16.0934 N/A
9:36 pm 21:36 Clear 72 22 68 20 88 88 NNW 5 7 29.97 1015 10 16.0934 N/A
9:57 pm 21:57 Clear 72 22 68 20 88 88 NW 3 6 29.97 1015 10 16.0934 N/A
10:16 pm 22:16 Clear 70 21 68 20 94 94 NW 3 6 29.97 1015 10 16.0934 N/A
10:37 pm 22:37 Clear 72 22 68 20 88 88 NW 5 7 29.97 1015 10 16.0934 N/A
10:56 pm 22:56 Clear 72 22 68 20 88 88 NW 3 6 29.97 1015 10 16.0934 N/A
11:16 pm 23:16 Clear 64 18 64 18 100 100 WNW 3 6 30 1016 10 16.0934 N/A
11:37 pm 23:37 Clear 64 18 64 18 100 100 N N/A 30 1016 10 16.0934 N/A
11:56 pm 23:56 Clear 64 18 64 18 100 100 N N/A 30 1016 10 16.0934 N/A

Powered by AerisWeather